CRYOSAT 2

Last updated on Fri Jul 11 2025 00:03:28 GMT+0000 (Coordinated Universal Time)

1 36508U 10013A 25191.58329517 .00000181 00000+0 44274-4 0 9999 2 36508 92.0089 194.7353 0002535 82.3661 277.7834 14.51910837808514
UTC large
Height (km)
Speed (km/s)
/
Latitude / Longitude
Inclination (degrees)
Orbital Period (minutes)
Azimuth
Elevation
Range (km)
Doppler Factor

Next 0 passes for location: London (51.5072 / 0.1276)

Sorry there are no passes over London.